DW7126 Lourinha PT current weather conditions

sailwx.info

Wind from 360

Air temperature 18.3° C
Dewpoint 15.6° C

Last reported at 2017-Aug-21 00:05 UTC.
Time now 2017-Aug-21 01:02 UTC

Location: N 39°14' W 009°18'.
View on Google Maps.

See reports from other nearby stations

  
Tides and Currents Weather Stations Pressure Air Temp Water Temp Dewpoint Dewpoint Depression Visibility Wind Speed Wind Dir Waves Ship Positions
date/time (UTC)wind fromknots sea level pressurealtimeterstation pressurevisibilityair tempwater tempwave heightnotes
2017-Aug-21 00:05 360 18.3
2017-Aug-21 00:00 266 18.3
2017-Aug-20 23:55 265 18.3
2017-Aug-20 23:50 266 18.3
2017-Aug-20 23:45 266 18.3
2017-Aug-20 23:40 265 18.3
2017-Aug-20 23:35 265 18.3
2017-Aug-20 23:30 265 18.3
2017-Aug-20 23:25 360 18.3
2017-Aug-20 23:20 360 18.9
2017-Aug-20 23:15 266 18.9
2017-Aug-20 23:10 360 18.9
2017-Aug-20 23:05 360 19.4
2017-Aug-20 23:00 360 19.4
2017-Aug-20 22:55 360 19.4
2017-Aug-20 22:50 267 19.4
2017-Aug-20 22:45 267 19.4
2017-Aug-20 22:40 267 19.4
2017-Aug-20 22:35 267 19.4
2017-Aug-20 22:30 360 19.4
2017-Aug-20 22:25 267 19.4
2017-Aug-20 22:20 267 19.4
2017-Aug-20 22:15 267 20.0
2017-Aug-20 22:10 267 19.4
2017-Aug-20 22:05 267 0 gusting 2 19.4
2017-Aug-20 22:00 267 1 gusting 3 19.4
2017-Aug-20 21:55 265 0 gusting 3 18.9
2017-Aug-20 21:50 268 19.4
2017-Aug-20 21:45 268 19.4
2017-Aug-20 21:40 268 19.4
2017-Aug-20 21:35 268 19.4
2017-Aug-20 21:30 268 20.0
2017-Aug-20 21:25 267 20.0
2017-Aug-20 21:20 267 20.0
2017-Aug-20 21:15 269 19.4
2017-Aug-20 21:10 269 19.4
2017-Aug-20 21:05 269 19.4
2017-Aug-20 21:00 269 20.0
2017-Aug-20 20:55 269 20.0
2017-Aug-20 20:50 269 20.0
2017-Aug-20 20:45 269 20.6
2017-Aug-20 20:40 269 20.6
2017-Aug-20 20:35 269 20.6
2017-Aug-20 20:30 269 20.6
2017-Aug-20 20:25 269 20.6
2017-Aug-20 20:20 269 20.6
2017-Aug-20 20:15 269 20.6
2017-Aug-20 20:10 269 21.1
2017-Aug-20 20:00 269 21.1
2017-Aug-20 19:55 269 21.1
2017-Aug-20 19:50 269 21.1
2017-Aug-20 19:45 269 21.1
2017-Aug-20 19:40 269 21.1
2017-Aug-20 19:35 267 0 gusting 2 21.1
2017-Aug-20 19:30 268 21.7
2017-Aug-20 19:25 268 21.7
2017-Aug-20 19:20 268 21.7
2017-Aug-20 19:15 268 21.7
2017-Aug-20 19:10 267 0 gusting 4 22.2
2017-Aug-20 19:05 265 1 gusting 4 22.2
2017-Aug-20 19:00 270 1 gusting 4 22.8
2017-Aug-20 18:55 269 0 gusting 4 22.8
2017-Aug-20 18:50 360 1 gusting 6 23.3
2017-Aug-20 18:45 360 2 gusting 6 23.9
2017-Aug-20 18:40 360 2 gusting 6 25.0
2017-Aug-20 18:35 360 0 gusting 3 26.1
2017-Aug-20 18:30 329 0 gusting 2 27.2
2017-Aug-20 18:25 329 0 gusting 2 27.8
2017-Aug-20 18:20 329 28.3
2017-Aug-20 18:15 329 0 gusting 1 28.3
2017-Aug-20 18:10 360 28.3
2017-Aug-20 18:05 328 0 gusting 1 28.9
2017-Aug-20 18:00 329 28.9
2017-Aug-20 17:55 328 2 gusting 4 28.9
2017-Aug-20 17:50 328 1 gusting 5 29.4
2017-Aug-20 17:45 325 0 gusting 4 29.4
2017-Aug-20 17:40 329 1 gusting 4 30.0
2017-Aug-20 17:35 327 1 gusting 4 30.6
2017-Aug-20 17:30 317 1 gusting 5 30.6
2017-Aug-20 17:25 360 2 gusting 5 30.0
2017-Aug-20 17:20 360 2 gusting 5 30.0
2017-Aug-20 17:15 300 2 gusting 5 30.0
2017-Aug-20 17:10 360 2 gusting 5 30.0
2017-Aug-20 17:05 329 0 gusting 3 30.6
2017-Aug-20 17:00 327 0 gusting 3 30.6
2017-Aug-20 16:55 324 1 gusting 5 31.1
2017-Aug-20 16:50 325 2 gusting 5 30.6
2017-Aug-20 16:45 319 3 gusting 4 30.6
2017-Aug-20 16:40 360 0 gusting 6 30.6
2017-Aug-20 16:35 325 2 gusting 6 30.6
2017-Aug-20 16:30 360 0 gusting 5 30.6
2017-Aug-20 16:25 290 0 gusting 4 30.6
2017-Aug-20 16:20 290 1 gusting 4 30.0
2017-Aug-20 16:15 288 1 gusting 4 30.6
2017-Aug-20 16:10 287 1 gusting 5 30.0
2017-Aug-20 16:05 297 2 gusting 5 30.0
2017-Aug-20 16:00 275 2 gusting 5 30.6
2017-Aug-20 15:55 263 3 gusting 6 29.4
2017-Aug-20 15:50 360 4 gusting 6 28.9
2017-Aug-20 15:40 270 4 gusting 8 29.4
2017-Aug-20 15:35 360 6 gusting 8 29.4
2017-Aug-20 15:25 360 5 gusting 9 29.4
2017-Aug-20 15:20 360 6 gusting 9 30.0
2017-Aug-20 15:15 360 5 gusting 9 29.4
2017-Aug-20 15:10 360 5 gusting 9 29.4
2017-Aug-20 15:05 360 6 gusting 9 29.4
2017-Aug-20 15:00 360 6 gusting 10 30.0
2017-Aug-20 14:55 360 6 gusting 13 30.0
2017-Aug-20 14:50 360 9 gusting 13 31.7
2017-Aug-20 14:45 284 5 gusting 10 33.3
2017-Aug-20 14:40 300 4 gusting 9 33.9
2017-Aug-20 14:35 335 4 gusting 9 33.3
2017-Aug-20 14:30 360 6 gusting 8 33.3
2017-Aug-20 14:25 327 6 gusting 8 33.9
2017-Aug-20 14:20 321 6 gusting 9 33.3
2017-Aug-20 14:15 302 6 gusting 9 33.9
2017-Aug-20 14:10 321 4 gusting 8 33.9
2017-Aug-20 14:05 338 5 gusting 8 33.9
2017-Aug-20 14:00 311 5 gusting 8 33.3
2017-Aug-20 13:55 340 6 gusting 8 33.3
2017-Aug-20 13:50 326 3 gusting 7 33.3
2017-Aug-20 13:45 339 3 gusting 8 33.3
2017-Aug-20 13:40 344 4 gusting 9 32.8
2017-Aug-20 13:35 360 5 gusting 7 32.8
2017-Aug-20 13:30 005 3 gusting 8 32.2
2017-Aug-20 13:25 336 6 gusting 9 32.2
2017-Aug-20 13:20 300 3 gusting 9 31.7
2017-Aug-20 13:15 309 4 gusting 8 31.1
2017-Aug-20 13:10 310 5 gusting 6 31.7
2017-Aug-20 13:05 331 5 gusting 6 32.2
2017-Aug-20 13:00 324 4 gusting 6 32.2
2017-Aug-20 12:55 334 4 gusting 6 31.7
2017-Aug-20 12:50 316 3 gusting 6 32.2
2017-Aug-20 12:45 300 2 gusting 6 32.2
2017-Aug-20 12:40 326 4 gusting 6 32.2
2017-Aug-20 12:35 261 2 gusting 6 32.8
2017-Aug-20 12:30 296 1 gusting 6 32.2
2017-Aug-20 12:25 360 3 gusting 6 31.7
2017-Aug-20 12:20 276 3 gusting 6 31.7
2017-Aug-20 12:15 360 1 gusting 6 31.7
2017-Aug-20 12:10 360 3 gusting 6 31.7
2017-Aug-20 12:05 296 2 gusting 5 31.1
2017-Aug-20 12:00 300 3 gusting 5 31.7
2017-Aug-20 11:55 306 1 gusting 5 30.6
2017-Aug-20 11:50 309 2 gusting 6 30.6
2017-Aug-20 11:45 285 2 gusting 6 30.6
2017-Aug-20 11:40 360 5 gusting 7 30.6
2017-Aug-20 11:35 360 5 gusting 7 30.6
2017-Aug-20 11:30 290 3 gusting 6 30.6
2017-Aug-20 11:25 295 2 gusting 6 30.6
2017-Aug-20 11:20 295 2 gusting 6 30.6
2017-Aug-20 11:15 294 3 gusting 6 30.6
2017-Aug-20 11:10 030 1 gusting 4 30.6
2017-Aug-20 11:05 032 2 gusting 4 30.0
2017-Aug-20 11:00 034 1 gusting 3 30.0
2017-Aug-20 10:55 034 1 gusting 4 30.0
2017-Aug-20 10:50 037 1 gusting 4 31.1
2017-Aug-20 10:40 005 2 gusting 3 30.6
2017-Aug-20 10:35 360 0 gusting 3 30.0
2017-Aug-20 10:30 360 2 gusting 3 29.4
2017-Aug-20 10:25 360 1 gusting 4 29.4
2017-Aug-20 10:00 005 0 gusting 3 28.3
2017-Aug-20 09:55 009 0 gusting 3 27.8
2017-Aug-20 09:50 011 0 gusting 3 27.2
2017-Aug-20 09:45 012 1 gusting 3 26.7
2017-Aug-20 09:40 012 0 gusting 2 26.7
2017-Aug-20 09:35 013 0 gusting 1 26.7
2017-Aug-20 09:30 015 26.7
2017-Aug-20 09:25 013 26.1
2017-Aug-20 09:20 013 25.0
2017-Aug-20 09:15 013 24.4
2017-Aug-20 09:10 011 1 gusting 3 24.4
2017-Aug-20 09:05 005 0 gusting 2 23.9
2017-Aug-20 09:00 005 0 gusting 2 22.8
2017-Aug-20 08:55 005 0 gusting 2 22.2
2017-Aug-20 08:50 005 21.7
2017-Aug-20 08:45 005 21.1
2017-Aug-20 08:40 005 21.1
2017-Aug-20 08:35 005 20.6
2017-Aug-20 08:30 005 20.0
2017-Aug-20 08:25 005 19.4
2017-Aug-20 08:20 005 19.4
2017-Aug-20 08:15 005 18.9
2017-Aug-20 08:10 005 18.9
2017-Aug-20 08:05 005 18.9
2017-Aug-20 08:00 005 0 gusting 1 18.3
2017-Aug-20 07:55 005 0 gusting 1 18.3
2017-Aug-20 07:50 005 17.8
2017-Aug-20 07:45 005 17.2
2017-Aug-20 07:40 360 17.2
2017-Aug-20 07:35 360 16.7
2017-Aug-20 07:30 360 16.1
2017-Aug-20 07:25 360 16.1
2017-Aug-20 07:20 360 15.6
2017-Aug-20 07:15 360 15.0
2017-Aug-20 07:10 360 15.6
2017-Aug-20 07:05 360 15.6
2017-Aug-20 07:00 360 15.6
2017-Aug-20 06:55 360 15.6
2017-Aug-20 06:50 360 15.0
2017-Aug-20 06:45 360 15.0
2017-Aug-20 06:40 360 15.0
2017-Aug-20 06:35 360 14.4
2017-Aug-20 06:30 360 14.4
2017-Aug-20 06:25 360 15.0
2017-Aug-20 06:20 360 14.4
2017-Aug-20 06:15 360 13.9
2017-Aug-20 06:10 360 13.9
2017-Aug-20 06:05 360 13.9
2017-Aug-20 06:00 360 13.9
2017-Aug-20 05:55 360 13.9
2017-Aug-20 05:50 009 13.9
2017-Aug-20 05:45 009 13.9
2017-Aug-20 05:40 009 14.4
2017-Aug-20 05:35 009 15.0
2017-Aug-20 05:30 009 14.4
2017-Aug-20 05:25 009 14.4
2017-Aug-20 05:20 009 14.4
2017-Aug-20 05:15 009 14.4
2017-Aug-20 05:10 009 14.4
2017-Aug-20 05:05 009 14.4
2017-Aug-20 05:00 009 14.4
2017-Aug-20 04:55 009 14.4
2017-Aug-20 04:50 009 14.4
2017-Aug-20 04:45 009 14.4
2017-Aug-20 04:40 009 14.4
2017-Aug-20 04:35 009 14.4
2017-Aug-20 04:30 009 14.4
2017-Aug-20 04:25 009 14.4
2017-Aug-20 04:20 009 14.4
2017-Aug-20 04:15 009 15.0
2017-Aug-20 04:10 009 15.0
2017-Aug-20 04:05 009 15.0
2017-Aug-20 04:00 009 15.0
2017-Aug-20 03:55 009 15.0
2017-Aug-20 03:50 009 15.0
2017-Aug-20 03:45 009 15.6
2017-Aug-20 03:40 009 15.6
2017-Aug-20 03:35 009 15.6
2017-Aug-20 03:30 009 15.0
2017-Aug-20 03:25 009 15.6
2017-Aug-20 03:15 009 15.6
2017-Aug-20 03:10 009 15.0
2017-Aug-20 03:05 009 15.0
2017-Aug-20 03:00 009 16.1
2017-Aug-20 02:55 009 16.1
2017-Aug-20 02:50 009 16.1
2017-Aug-20 02:45 009 16.1
2017-Aug-20 02:40 009 16.1
2017-Aug-20 02:35 009 16.1
2017-Aug-20 02:30 009 16.1
2017-Aug-20 02:25 009 16.1
2017-Aug-20 02:20 009 16.1
2017-Aug-20 02:15 009 16.1
2017-Aug-20 02:10 009 16.7
2017-Aug-20 02:05 009 16.7
2017-Aug-20 02:00 009 16.7
2017-Aug-20 01:55 009 16.7
2017-Aug-20 01:50 009 16.7
2017-Aug-20 01:45 009 0 gusting 4 16.7
2017-Aug-20 01:40 009 2 gusting 4 16.7
2017-Aug-20 01:35 360 0 gusting 4 16.7
2017-Aug-20 01:30 360 16.7
2017-Aug-20 01:25 360 16.7
2017-Aug-20 01:20 360 16.7
2017-Aug-20 01:15 360 0 gusting 2 16.7
2017-Aug-20 01:10 360 16.7
2017-Aug-20 01:05 360 17.2
2017-Aug-20 01:00 360 17.2
2017-Aug-20 00:55 360 17.2
2017-Aug-20 00:50 360 17.2
2017-Aug-20 00:45 360 17.2
2017-Aug-20 00:40 360 1 gusting 5 17.2
2017-Aug-20 00:35 360 3 gusting 5 17.2
2017-Aug-20 00:30 009 1 gusting 3 17.2
2017-Aug-20 00:25 009 17.2
2017-Aug-20 00:20 009 17.2
2017-Aug-20 00:15 009 17.2
2017-Aug-20 00:10 009 17.2
2017-Aug-20 00:05 009 0 gusting 3 17.2
2017-Aug-20 00:00 005 2 gusting 5 17.2
2017-Aug-19 23:55 009 1 gusting 4 17.2
2017-Aug-19 23:50 005 2 gusting 4 17.2
2017-Aug-19 23:45 005 1 gusting 4 17.2
2017-Aug-19 23:40 009 1 gusting 4 17.2
2017-Aug-19 23:35 011 3 gusting 4 17.2
2017-Aug-19 23:30 037 17.2
2017-Aug-19 23:25 038 17.2
2017-Aug-19 23:20 038 17.8
2017-Aug-19 23:15 038 17.8
2017-Aug-19 23:10 038 17.8
2017-Aug-19 23:05 038 17.8
2017-Aug-19 23:00 038 17.8
2017-Aug-19 22:55 038 17.8
2017-Aug-19 22:50 038 1 gusting 5 17.8
2017-Aug-19 22:45 045 2 gusting 6 17.8
2017-Aug-19 22:40 049 2 gusting 6 17.8
2017-Aug-19 22:35 047 1 gusting 8 17.8
2017-Aug-19 22:30 030 2 gusting 6 17.8
2017-Aug-19 22:25 030 2 gusting 8 17.8
2017-Aug-19 22:20 035 5 gusting 9 17.8
2017-Aug-19 22:15 051 3 gusting 12 17.8
2017-Aug-19 22:10 020 6 gusting 15 17.8
2017-Aug-19 22:05 024 6 gusting 15 17.8
2017-Aug-19 22:00 032 8 gusting 14 17.8
2017-Aug-19 21:55 029 7 gusting 14 17.8
2017-Aug-19 21:50 041 7 gusting 13 17.8
2017-Aug-19 21:45 027 9 gusting 14 17.8
2017-Aug-19 21:40 028 8 gusting 17 17.8
2017-Aug-19 21:35 024 10 gusting 17 17.8
2017-Aug-19 21:30 030 8 gusting 14 18.3
2017-Aug-19 21:25 042 9 gusting 14 18.3
2017-Aug-19 21:20 038 8 gusting 16 18.3
2017-Aug-19 21:15 039 9 gusting 16 18.3
2017-Aug-19 21:10 029 9 gusting 15 18.3
2017-Aug-19 21:05 030 8 gusting 12 18.3
2017-Aug-19 21:00 017 7 gusting 14 18.3
2017-Aug-19 20:55 022 9 gusting 14 18.3
2017-Aug-19 20:50 038 8 gusting 13 18.3
2017-Aug-19 20:45 034 6 gusting 11 18.3
2017-Aug-19 20:40 026 7 gusting 13 18.3
2017-Aug-19 20:35 005 7 gusting 13 18.3
2017-Aug-19 20:30 021 6 gusting 11 18.3
2017-Aug-19 20:25 021 6 gusting 12 18.3
2017-Aug-19 20:20 019 6 gusting 12 18.3
2017-Aug-19 20:15 030 6 gusting 11 18.3
2017-Aug-19 20:10 032 6 gusting 13 18.3
2017-Aug-19 20:05 033 8 gusting 13 18.3
2017-Aug-19 20:00 030 8 gusting 13 18.3
2017-Aug-19 19:55 023 6 gusting 12 18.3
2017-Aug-19 19:50 355 6 gusting 15 18.3
2017-Aug-19 19:45 014 8 gusting 18 18.3
2017-Aug-19 19:40 033 11 gusting 22 18.3
2017-Aug-19 19:35 040 15 gusting 22 18.9
2017-Aug-19 19:30 030 11 gusting 18 18.9
2017-Aug-19 19:25 026 12 gusting 19 18.9
2017-Aug-19 19:20 018 13 gusting 19 18.9
2017-Aug-19 19:15 025 13 gusting 18 18.9
2017-Aug-19 19:10 044 12 gusting 18 19.4
2017-Aug-19 19:05 025 9 gusting 15 19.4
2017-Aug-19 19:00 025 7 gusting 17 19.4
2017-Aug-19 18:55 020 10 gusting 19 20.0
2017-Aug-19 18:50 019 12 gusting 19 20.0
2017-Aug-19 18:45 351 13 gusting 19 20.0
2017-Aug-19 18:40 028 10 gusting 20 20.6
2017-Aug-19 18:35 011 13 gusting 18 20.6
2017-Aug-19 18:30 027 11 gusting 17 20.6
2017-Aug-19 18:25 027 13 gusting 17 21.1
2017-Aug-19 18:20 028 9 gusting 19 21.1
2017-Aug-19 18:15 044 8 gusting 19 21.1
2017-Aug-19 18:10 015 11 gusting 16 21.1
2017-Aug-19 18:05 360 6 gusting 16 21.7
2017-Aug-19 18:00 053 9 gusting 16 21.7
2017-Aug-19 17:55 011 7 gusting 13 21.1
2017-Aug-19 17:50 022 8 gusting 17 21.7
2017-Aug-19 17:45 026 9 gusting 17 21.7
2017-Aug-19 17:40 005 9 gusting 19 21.7
2017-Aug-19 17:35 021 9 gusting 22 22.2
2017-Aug-19 17:30 036 12 gusting 21 21.7
2017-Aug-19 17:25 029 14 gusting 21 21.7
2017-Aug-19 17:20 029 7 gusting 16 22.2
2017-Aug-19 17:15 017 11 gusting 19 22.2
2017-Aug-19 17:10 022 11 gusting 19 22.2
2017-Aug-19 17:05 023 13 gusting 21 22.2
2017-Aug-19 17:00 028 13 gusting 21 22.2
2017-Aug-19 16:55 026 13 gusting 21 22.8
2017-Aug-19 16:50 031 12 gusting 17 22.8
2017-Aug-19 16:45 015 10 gusting 19 22.8
2017-Aug-19 16:40 019 11 gusting 19 22.8
2017-Aug-19 16:35 013 13 gusting 19 22.8
2017-Aug-19 16:30 026 13 gusting 19 22.8
2017-Aug-19 16:25 018 13 gusting 19 22.8
2017-Aug-19 16:20 005 13 gusting 18 22.8
2017-Aug-19 16:15 029 12 gusting 15 23.3
2017-Aug-19 16:10 025 7 gusting 16 22.8
2017-Aug-19 16:05 347 12 gusting 16 22.8
2017-Aug-19 16:00 010 9 gusting 15 22.2
2017-Aug-19 15:55 013 7 gusting 19 22.8
2017-Aug-19 15:50 013 11 gusting 19 22.8
2017-Aug-19 15:45 031 8 gusting 17 22.2
2017-Aug-19 15:40 036 10 gusting 17 22.2
2017-Aug-19 15:35 360 10 gusting 15 22.8
2017-Aug-19 15:30 349 10 gusting 15 23.3
2017-Aug-19 15:25 013 9 gusting 13 23.3
2017-Aug-19 15:20 015 9 gusting 13 23.3
2017-Aug-19 15:15 027 10 gusting 16 23.9
2017-Aug-19 15:10 046 10 gusting 17 23.3
2017-Aug-19 15:05 009 11 gusting 17 23.3
2017-Aug-19 15:00 029 11 gusting 16 23.3
2017-Aug-19 14:55 027 10 gusting 13 22.8
2017-Aug-19 14:50 022 8 gusting 16 22.8
2017-Aug-19 14:45 032 10 gusting 16 22.8
2017-Aug-19 14:40 011 7 gusting 14 22.8
2017-Aug-19 14:35 355 8 gusting 17 22.8
2017-Aug-19 14:30 019 10 gusting 17 22.8
2017-Aug-19 14:25 009 8 gusting 14 22.8
2017-Aug-19 14:20 036 11 gusting 15 22.8
2017-Aug-19 14:15 340 8 gusting 16 22.8
2017-Aug-19 14:10 030 11 gusting 16 22.8
2017-Aug-19 14:05 345 7 gusting 15 23.3
2017-Aug-19 14:00 015 10 gusting 17 22.8
2017-Aug-19 13:55 360 12 gusting 17 22.8
2017-Aug-19 13:50 341 8 gusting 15 22.8
2017-Aug-19 13:45 046 10 gusting 16 23.3
2017-Aug-19 13:40 016 8 gusting 16 23.3
2017-Aug-19 13:35 360 9 gusting 15 23.3
2017-Aug-19 13:30 355 9 gusting 14 23.3
2017-Aug-19 13:25 005 7 gusting 14 23.9
2017-Aug-19 13:20 360 7 gusting 13 23.3
2017-Aug-19 13:05 021 7 gusting 15 22.8
2017-Aug-19 13:00 013 7 gusting 15 23.3
2017-Aug-19 12:55 318 7 gusting 14 23.3
2017-Aug-19 12:50 040 7 gusting 18 23.3
2017-Aug-19 12:45 017 7 gusting 18 23.3
2017-Aug-19 12:40 023 10 gusting 16 22.8
2017-Aug-19 12:35 013 8 gusting 16 22.8
2017-Aug-19 12:30 024 10 gusting 17 22.8
2017-Aug-19 12:25 030 11 gusting 18 22.8
2017-Aug-19 12:20 032 12 gusting 18 22.2
2017-Aug-19 12:10 020 13 gusting 20 22.2
2017-Aug-19 12:05 022 13 gusting 20 22.2
2017-Aug-19 12:00 021 11 gusting 19 21.7
2017-Aug-19 11:55 036 9 gusting 19 22.2
2017-Aug-19 11:50 046 13 gusting 18 21.7
2017-Aug-19 11:45 360 10 gusting 18 21.7
2017-Aug-19 11:40 024 9 gusting 18 21.7
2017-Aug-19 11:35 028 9 gusting 17 21.1
2017-Aug-19 11:30 032 11 gusting 16 20.6
2017-Aug-19 11:25 017 8 gusting 16 20.6
2017-Aug-19 11:20 018 10 gusting 16 20.6
2017-Aug-19 11:15 345 9 gusting 16 20.6
2017-Aug-19 11:10 030 10 gusting 17 20.6
2017-Aug-19 11:05 009 10 gusting 18 20.6
2017-Aug-19 11:00 350 12 gusting 19 20.6
2017-Aug-19 10:55 332 9 gusting 19 20.6
2017-Aug-19 10:50 021 10 gusting 15 20.6
2017-Aug-19 10:45 015 6 gusting 15 20.0
2017-Aug-19 10:40 009 7 gusting 15 20.0
2017-Aug-19 10:35 009 8 gusting 15 20.0
2017-Aug-19 10:30 009 8 gusting 15 20.0
2017-Aug-19 10:25 015 8 gusting 16 20.6
2017-Aug-19 10:20 350 11 gusting 16 19.4
2017-Aug-19 10:15 029 7 gusting 15 19.4
2017-Aug-19 10:10 029 10 gusting 15 19.4
2017-Aug-19 10:05 028 7 gusting 16 18.9
2017-Aug-19 10:00 017 11 gusting 16 18.9
2017-Aug-19 09:55 019 6 gusting 13 18.3
2017-Aug-19 09:50 027 6 gusting 13 18.3
2017-Aug-19 09:45 032 7 gusting 13 18.3
2017-Aug-19 09:40 024 7 gusting 13 18.3
2017-Aug-19 09:35 021 6 gusting 13 18.3
2017-Aug-19 09:30 030 6 gusting 13 18.3
2017-Aug-19 09:25 024 7 gusting 12 18.3
2017-Aug-19 09:20 028 7 gusting 13 17.8
2017-Aug-19 09:15 022 6 gusting 13 18.3
2017-Aug-19 09:10 036 7 gusting 14 18.3
2017-Aug-19 09:00 026 7 gusting 19 17.8
2017-Aug-19 08:55 019 11 gusting 19 17.8
2017-Aug-19 08:50 032 10 gusting 16 17.8
2017-Aug-19 08:45 020 8 gusting 17 17.8
2017-Aug-19 08:40 015 11 gusting 17 17.8
2017-Aug-19 08:35 051 10 gusting 18 17.8
2017-Aug-19 08:30 036 11 gusting 18 17.8
2017-Aug-19 08:25 024 10 gusting 14 17.8
2017-Aug-19 08:20 020 8 gusting 16 17.8
2017-Aug-19 08:15 034 8 gusting 16 17.8
2017-Aug-19 08:10 035 9 gusting 13 17.8
2017-Aug-19 08:05 028 8 gusting 14 17.2
2017-Aug-19 08:00 025 9 gusting 14 17.2
2017-Aug-19 07:55 028 8 gusting 13 17.2
2017-Aug-19 07:50 017 6 gusting 14 17.2
2017-Aug-19 07:45 026 9 gusting 16 17.2
2017-Aug-19 07:40 055 11 gusting 19 17.2
2017-Aug-19 07:35 018 12 gusting 19 17.2
2017-Aug-19 07:30 032 12 gusting 18 17.2
2017-Aug-19 07:25 019 10 gusting 18 17.2
2017-Aug-19 07:20 038 9 gusting 15 17.2
2017-Aug-19 07:15 036 7 gusting 13 17.2
2017-Aug-19 07:10 014 6 gusting 10 17.2
2017-Aug-19 07:05 038 0 gusting 8 17.2
2017-Aug-19 07:00 029 0 gusting 6 17.2
2017-Aug-19 06:55 024 17.2
2017-Aug-19 06:50 031 17.2
2017-Aug-19 06:45 030 17.2
2017-Aug-19 06:40 040 17.2
2017-Aug-19 06:35 024 17.2
2017-Aug-19 06:30 040 0 gusting 5 17.2
2017-Aug-19 06:25 024 17.2
2017-Aug-19 06:20 030 17.2
2017-Aug-19 06:15 032 17.2
2017-Aug-19 06:10 009 17.2
2017-Aug-19 06:05 005 17.2
2017-Aug-19 06:00 033 17.2
2017-Aug-19 05:55 028 17.2
2017-Aug-19 05:50 040 17.2
2017-Aug-19 05:45 053 17.2
2017-Aug-19 05:40 030 17.2
2017-Aug-19 05:35 028 17.2
2017-Aug-19 05:30 009 17.2
2017-Aug-19 05:25 024 17.2
2017-Aug-19 05:20 347 17.2
2017-Aug-19 05:15 031 17.2
2017-Aug-19 05:10 009 17.2
2017-Aug-19 05:05 024 17.2
2017-Aug-19 05:00 013 17.8
2017-Aug-19 04:55 033 17.8
2017-Aug-19 04:50 012 17.8
2017-Aug-19 04:45 015 17.8
2017-Aug-19 04:40 030 17.8
2017-Aug-19 04:35 025 17.8
2017-Aug-19 04:30 023 17.8
2017-Aug-19 04:25 026 17.8
2017-Aug-19 04:20 028 17.8
2017-Aug-19 04:15 025 17.8
2017-Aug-19 04:10 032 17.8
2017-Aug-19 04:05 020 17.8
2017-Aug-19 04:00 010 17.8
2017-Aug-19 03:55 032 17.8
2017-Aug-19 03:50 023 17.8
2017-Aug-19 03:45 026 17.8
2017-Aug-19 03:40 026 17.8
2017-Aug-19 03:35 011 17.8
2017-Aug-19 03:30 024 17.2
2017-Aug-19 03:25 035 17.2
2017-Aug-19 03:20 031 17.2
2017-Aug-19 03:15 019 17.2
2017-Aug-19 03:10 037 17.2
2017-Aug-19 03:05 027 0 gusting 3 17.2
2017-Aug-19 03:00 037 17.2
2017-Aug-19 02:55 027 0 gusting 6 17.2
2017-Aug-19 02:50 036 17.2
2017-Aug-19 02:45 027 1 gusting 5 17.2
2017-Aug-19 02:40 024 0 gusting 6 17.2
2017-Aug-19 02:35 029 0 gusting 6 17.2
2017-Aug-19 02:30 030 1 gusting 7 17.2
2017-Aug-19 02:25 005 3 gusting 7 17.2
2017-Aug-19 02:20 033 3 gusting 7 17.2
2017-Aug-19 02:15 029 5 gusting 7 17.2
2017-Aug-19 02:10 013 4 gusting 6 17.2
2017-Aug-19 02:05 026 3 gusting 5 17.2
2017-Aug-19 02:00 019 2 gusting 7 17.2
2017-Aug-19 01:55 019 4 gusting 8 17.2
2017-Aug-19 01:50 019 6 gusting 8 17.2
2017-Aug-19 01:45 036 4 gusting 6 17.2
2017-Aug-19 01:40 020 4 gusting 7 17.2
2017-Aug-19 01:35 037 3 gusting 6 17.2
2017-Aug-19 01:30 032 3 gusting 8 17.2
2017-Aug-19 01:25 030 4 gusting 8 17.8
2017-Aug-19 01:20 360 5 gusting 9 17.8
2017-Aug-19 01:15 039 6 gusting 9 17.8
2017-Aug-19 01:10 063 5 gusting 10 17.8
2017-Aug-19 01:05 023 5 gusting 10 17.8
2017-Aug-19 01:00 023 6 gusting 9 17.8